Year,Month,Day,Hour,Minute,Value (Times are PST for temperature in C)
2018,10,13,00,00,7.80
2018,10,13,00,01,7.80
2018,10,13,00,02,7.80
2018,10,13,00,03,7.70
2018,10,13,00,04,7.70
2018,10,13,00,05,7.60
2018,10,13,00,06,7.50
2018,10,13,00,07,7.40
2018,10,13,00,08,7.40
2018,10,13,00,09,7.30
2018,10,13,00,10,7.30
2018,10,13,00,11,7.20
2018,10,13,00,12,7.10
2018,10,13,00,13,7.10
2018,10,13,00,14,7.10
2018,10,13,00,15,7.10
2018,10,13,00,16,7.10
2018,10,13,00,17,7.10
2018,10,13,00,18,7.10
2018,10,13,00,19,7.10
2018,10,13,00,20,7.10
2018,10,13,00,21,7.10
2018,10,13,00,22,7.10
2018,10,13,00,23,7.10
2018,10,13,00,24,7.10
2018,10,13,00,25,7.10
2018,10,13,00,26,7.10
2018,10,13,00,27,7.10
2018,10,13,00,28,7.10
2018,10,13,00,29,7.20
2018,10,13,00,30,7.20
2018,10,13,00,31,7.20
2018,10,13,00,32,7.20
2018,10,13,00,33,7.30
2018,10,13,00,34,7.30
2018,10,13,00,35,7.30
2018,10,13,00,36,7.30
2018,10,13,00,37,7.30
2018,10,13,00,38,7.30
2018,10,13,00,39,7.30
2018,10,13,00,40,7.30
2018,10,13,00,41,7.30
2018,10,13,00,42,7.30
2018,10,13,00,43,7.40
2018,10,13,00,44,7.40
2018,10,13,00,45,7.40
2018,10,13,00,46,7.40
2018,10,13,00,47,7.40
2018,10,13,00,48,7.40
2018,10,13,00,49,7.40
2018,10,13,00,50,7.40
2018,10,13,00,51,7.40
2018,10,13,00,52,7.40
2018,10,13,00,53,7.40
2018,10,13,00,54,7.30
2018,10,13,00,55,7.30
2018,10,13,00,56,7.30
2018,10,13,00,57,7.20
2018,10,13,00,58,7.20
2018,10,13,00,59,7.20
2018,10,13,01,00,7.20
2018,10,13,01,01,7.20
2018,10,13,01,02,7.10
2018,10,13,01,03,7.10
2018,10,13,01,04,7.10
2018,10,13,01,05,7.10
2018,10,13,01,06,7.10
2018,10,13,01,07,7.10
2018,10,13,01,08,7.10
2018,10,13,01,09,7.10
2018,10,13,01,10,7.10
2018,10,13,01,11,7.00
2018,10,13,01,12,7.00
2018,10,13,01,13,7.00
2018,10,13,01,14,7.00
2018,10,13,01,15,7.00
2018,10,13,01,16,7.00
2018,10,13,01,17,7.10
2018,10,13,01,18,7.10
2018,10,13,01,19,7.00
2018,10,13,01,20,7.00
2018,10,13,01,21,7.00
2018,10,13,01,22,6.90
2018,10,13,01,23,6.90
2018,10,13,01,24,6.90
2018,10,13,01,25,6.80
2018,10,13,01,26,6.80
2018,10,13,01,27,6.80
2018,10,13,01,28,6.80
2018,10,13,01,29,6.70
2018,10,13,01,30,6.70
2018,10,13,01,31,6.70
2018,10,13,01,32,6.70
2018,10,13,01,33,6.70
2018,10,13,01,34,6.70
2018,10,13,01,35,6.70
2018,10,13,01,36,6.70
2018,10,13,01,37,6.70
2018,10,13,01,38,6.70
2018,10,13,01,39,6.60
2018,10,13,01,40,6.60
2018,10,13,01,41,6.60
2018,10,13,01,42,6.60
2018,10,13,01,43,6.50
2018,10,13,01,44,6.50
2018,10,13,01,45,6.40
2018,10,13,01,46,6.40
2018,10,13,01,47,6.30
2018,10,13,01,48,6.30
2018,10,13,01,49,6.30
2018,10,13,01,50,6.20
2018,10,13,01,51,6.30
2018,10,13,01,52,6.30
2018,10,13,01,53,6.30
2018,10,13,01,54,6.30
2018,10,13,01,55,6.30
2018,10,13,01,56,6.20
2018,10,13,01,57,6.20
2018,10,13,01,58,6.20
2018,10,13,01,59,6.20
2018,10,13,02,00,6.20
2018,10,13,02,01,6.30
2018,10,13,02,02,6.30
2018,10,13,02,03,6.30
2018,10,13,02,04,6.40
2018,10,13,02,05,6.30
2018,10,13,02,06,6.30
2018,10,13,02,07,6.30
2018,10,13,02,08,6.20
2018,10,13,02,09,6.20
2018,10,13,02,10,6.10
2018,10,13,02,11,6.10
2018,10,13,02,12,6.10
2018,10,13,02,13,6.10
2018,10,13,02,14,6.10
2018,10,13,02,15,6.00
2018,10,13,02,16,6.00
2018,10,13,02,17,6.00
2018,10,13,02,18,5.90
2018,10,13,02,19,5.90
2018,10,13,02,20,5.90
2018,10,13,02,21,5.80
2018,10,13,02,22,5.80
2018,10,13,02,23,5.80
2018,10,13,02,24,5.70
2018,10,13,02,25,5.70
2018,10,13,02,26,5.70
2018,10,13,02,27,5.70
2018,10,13,02,28,5.70
2018,10,13,02,29,5.80
2018,10,13,02,30,5.80
2018,10,13,02,31,5.80
2018,10,13,02,32,5.90
2018,10,13,02,33,5.90
2018,10,13,02,34,5.90
2018,10,13,02,35,5.90
2018,10,13,02,36,5.90
2018,10,13,02,37,5.90
2018,10,13,02,38,5.90
2018,10,13,02,39,5.90
2018,10,13,02,40,5.90
2018,10,13,02,41,5.90
2018,10,13,02,42,5.90
2018,10,13,02,43,5.90
2018,10,13,02,44,5.90
2018,10,13,02,45,5.90
2018,10,13,02,46,5.90
2018,10,13,02,47,5.90
2018,10,13,02,48,5.80
2018,10,13,02,49,5.80
2018,10,13,02,50,5.80
2018,10,13,02,51,5.80
2018,10,13,02,52,5.70
2018,10,13,02,53,5.70
2018,10,13,02,54,5.70
2018,10,13,02,55,5.70
2018,10,13,02,56,5.70
2018,10,13,02,57,5.70
2018,10,13,02,58,5.70
2018,10,13,02,59,5.70
2018,10,13,03,00,5.70
2018,10,13,03,01,5.80
2018,10,13,03,02,5.80
2018,10,13,03,03,5.80
2018,10,13,03,04,5.80
2018,10,13,03,05,5.80
2018,10,13,03,06,5.90
2018,10,13,03,07,5.90
2018,10,13,03,08,5.90
2018,10,13,03,09,5.90
2018,10,13,03,10,5.80
2018,10,13,03,11,5.80
2018,10,13,03,12,5.70
2018,10,13,03,13,5.70
2018,10,13,03,14,5.60
2018,10,13,03,15,5.60
2018,10,13,03,16,5.50
2018,10,13,03,17,5.40
2018,10,13,03,18,5.40
2018,10,13,03,19,5.30
2018,10,13,03,20,5.30
2018,10,13,03,21,5.30
2018,10,13,03,22,5.20
2018,10,13,03,23,5.20
2018,10,13,03,24,5.20
2018,10,13,03,25,5.20
2018,10,13,03,26,5.20
2018,10,13,03,27,5.10
2018,10,13,03,28,5.10
2018,10,13,03,29,5.10
2018,10,13,03,30,5.10
2018,10,13,03,31,5.10
2018,10,13,03,32,5.10
2018,10,13,03,33,5.20
2018,10,13,03,34,5.20
2018,10,13,03,35,5.20
2018,10,13,03,36,5.20
2018,10,13,03,37,5.20
2018,10,13,03,38,5.10
2018,10,13,03,39,5.10
2018,10,13,03,40,5.20
2018,10,13,03,41,5.20
2018,10,13,03,42,5.20
2018,10,13,03,43,5.30
2018,10,13,03,44,5.30
2018,10,13,03,45,5.30
2018,10,13,03,46,5.30
2018,10,13,03,47,5.30
2018,10,13,03,48,5.30
2018,10,13,03,49,5.20
2018,10,13,03,50,5.20
2018,10,13,03,51,5.20
2018,10,13,03,52,5.10
2018,10,13,03,53,5.10
2018,10,13,03,54,5.10
2018,10,13,03,55,5.10
2018,10,13,03,56,5.20
2018,10,13,03,57,5.20
2018,10,13,03,58,5.20
2018,10,13,03,59,5.20
2018,10,13,04,00,5.20
2018,10,13,04,01,5.30
2018,10,13,04,02,5.30
2018,10,13,04,03,5.30
2018,10,13,04,04,5.30
2018,10,13,04,05,5.20
2018,10,13,04,06,5.20
2018,10,13,04,07,5.10
2018,10,13,04,08,5.10
2018,10,13,04,09,5.10
2018,10,13,04,10,5.10
2018,10,13,04,11,5.10
2018,10,13,04,12,5.10
2018,10,13,04,13,5.00
2018,10,13,04,14,5.00
2018,10,13,04,15,5.00
2018,10,13,04,16,5.00
2018,10,13,04,17,5.00
2018,10,13,04,18,5.00
2018,10,13,04,19,5.00
2018,10,13,04,20,5.00
2018,10,13,04,21,5.00
2018,10,13,04,22,5.00
2018,10,13,04,23,5.00
2018,10,13,04,24,5.00
2018,10,13,04,25,5.00
2018,10,13,04,26,4.90
2018,10,13,04,27,4.90
2018,10,13,04,28,4.90
2018,10,13,04,29,4.90
2018,10,13,04,30,4.90
2018,10,13,04,31,4.90
2018,10,13,04,32,4.90
2018,10,13,04,33,4.90
2018,10,13,04,34,4.90
2018,10,13,04,35,4.90
2018,10,13,04,36,4.90
2018,10,13,04,37,4.90
2018,10,13,04,38,4.90
2018,10,13,04,39,5.00
2018,10,13,04,40,5.00
2018,10,13,04,41,5.00
2018,10,13,04,42,5.00
2018,10,13,04,43,5.00
2018,10,13,04,44,5.00
2018,10,13,04,45,4.90
2018,10,13,04,46,4.90
2018,10,13,04,47,5.00
2018,10,13,04,48,5.00
2018,10,13,04,49,5.00
2018,10,13,04,50,5.10
2018,10,13,04,51,5.10
2018,10,13,04,52,5.10
2018,10,13,04,53,5.10
2018,10,13,04,54,5.10
2018,10,13,04,55,5.10
2018,10,13,04,56,5.10
2018,10,13,04,57,5.10
2018,10,13,04,58,5.10
2018,10,13,04,59,5.10
2018,10,13,05,00,5.10
2018,10,13,05,01,5.10
2018,10,13,05,02,5.10
2018,10,13,05,03,5.20
2018,10,13,05,04,5.20
2018,10,13,05,05,5.20
2018,10,13,05,06,5.20
2018,10,13,05,07,5.20
2018,10,13,05,08,5.20
2018,10,13,05,09,5.20
2018,10,13,05,10,5.20
2018,10,13,05,11,5.20
2018,10,13,05,12,5.20
2018,10,13,05,13,5.20
2018,10,13,05,14,5.20
2018,10,13,05,15,5.20
2018,10,13,05,16,5.20
2018,10,13,05,17,5.20
2018,10,13,05,18,5.20
2018,10,13,05,19,5.20
2018,10,13,05,20,5.20
2018,10,13,05,21,5.10
2018,10,13,05,22,5.10
2018,10,13,05,23,5.10
2018,10,13,05,24,5.10
2018,10,13,05,25,5.10
2018,10,13,05,26,5.10
2018,10,13,05,27,5.10
2018,10,13,05,28,5.10
2018,10,13,05,29,5.10
2018,10,13,05,30,5.10
2018,10,13,05,31,5.20
2018,10,13,05,32,5.20
2018,10,13,05,33,5.20
2018,10,13,05,34,5.20
2018,10,13,05,35,5.20
2018,10,13,05,36,5.20
2018,10,13,05,37,5.10
2018,10,13,05,38,5.10
2018,10,13,05,39,5.10
2018,10,13,05,40,5.10
2018,10,13,05,41,5.10
2018,10,13,05,42,5.10
2018,10,13,05,43,5.10
2018,10,13,05,44,5.10
2018,10,13,05,45,5.10
2018,10,13,05,46,5.10
2018,10,13,05,47,5.10
2018,10,13,05,48,5.10
2018,10,13,05,49,5.10
2018,10,13,05,50,5.00
2018,10,13,05,51,5.00
2018,10,13,05,52,5.00
2018,10,13,05,53,5.00
2018,10,13,05,54,5.00
2018,10,13,05,55,5.00
2018,10,13,05,56,5.10
2018,10,13,05,57,5.10
2018,10,13,05,58,5.10
2018,10,13,05,59,5.10
2018,10,13,06,00,5.20
2018,10,13,06,01,5.20
2018,10,13,06,02,5.20
2018,10,13,06,03,5.20
2018,10,13,06,04,5.20
2018,10,13,06,05,5.20
2018,10,13,06,06,5.20
2018,10,13,06,07,5.30
2018,10,13,06,08,5.30
2018,10,13,06,09,5.30
2018,10,13,06,10,5.40
2018,10,13,06,11,5.50
2018,10,13,06,12,5.50
2018,10,13,06,13,5.50
2018,10,13,06,14,5.50
2018,10,13,06,15,5.50
2018,10,13,06,16,5.50
2018,10,13,06,17,5.50
2018,10,13,06,18,5.50
2018,10,13,06,19,5.40
2018,10,13,06,20,5.40
2018,10,13,06,21,5.40
2018,10,13,06,22,5.40
2018,10,13,06,23,5.40
2018,10,13,06,24,5.40
2018,10,13,06,25,5.40
2018,10,13,06,26,5.40
2018,10,13,06,27,5.40
2018,10,13,06,28,5.40
2018,10,13,06,29,5.40
2018,10,13,06,30,5.40
2018,10,13,06,31,5.30
2018,10,13,06,32,5.40
2018,10,13,06,33,5.40
2018,10,13,06,34,5.40
2018,10,13,06,35,5.40
2018,10,13,06,36,5.40
2018,10,13,06,37,5.40
2018,10,13,06,38,5.50
2018,10,13,06,39,5.50
2018,10,13,06,40,5.50
2018,10,13,06,41,5.50
2018,10,13,06,42,5.50
2018,10,13,06,43,5.50
2018,10,13,06,44,5.50
2018,10,13,06,45,5.40
2018,10,13,06,46,5.40
2018,10,13,06,47,5.40
2018,10,13,06,48,5.40
2018,10,13,06,49,5.50
2018,10,13,06,50,5.60
2018,10,13,06,51,5.60
2018,10,13,06,52,5.70
2018,10,13,06,53,5.70
2018,10,13,06,54,5.70
2018,10,13,06,55,5.70
2018,10,13,06,56,5.80
2018,10,13,06,57,5.70
2018,10,13,06,58,5.70
2018,10,13,06,59,5.60
2018,10,13,07,00,5.60
2018,10,13,07,01,5.50
2018,10,13,07,02,5.50
2018,10,13,07,03,5.40
2018,10,13,07,04,5.40
2018,10,13,07,05,5.40
2018,10,13,07,06,5.40
2018,10,13,07,07,5.30
2018,10,13,07,08,5.30
2018,10,13,07,09,5.40
2018,10,13,07,10,5.40
2018,10,13,07,11,5.40
2018,10,13,07,12,5.40
2018,10,13,07,13,5.50
2018,10,13,07,14,5.50
2018,10,13,07,15,5.50
2018,10,13,07,16,5.50
2018,10,13,07,17,5.50
2018,10,13,07,18,5.50
2018,10,13,07,19,5.50
2018,10,13,07,20,5.40
2018,10,13,07,21,5.40
2018,10,13,07,22,5.40
2018,10,13,07,23,5.40
2018,10,13,07,24,5.40
2018,10,13,07,25,5.40
2018,10,13,07,26,5.30
2018,10,13,07,27,5.30
2018,10,13,07,28,5.30
2018,10,13,07,29,5.40
2018,10,13,07,30,5.40
2018,10,13,07,31,5.40
2018,10,13,07,32,5.50
2018,10,13,07,33,5.50
2018,10,13,07,34,5.50
2018,10,13,07,35,5.60
2018,10,13,07,36,5.60
2018,10,13,07,37,5.60
2018,10,13,07,38,5.60
2018,10,13,07,39,5.60
2018,10,13,07,40,5.60
2018,10,13,07,41,5.60
2018,10,13,07,42,5.60
2018,10,13,07,43,5.70
2018,10,13,07,44,5.70
2018,10,13,07,45,5.70
2018,10,13,07,46,5.70
2018,10,13,07,47,5.70
2018,10,13,07,48,5.70
2018,10,13,07,49,5.60
2018,10,13,07,50,5.60
2018,10,13,07,51,5.50
2018,10,13,07,52,5.50
2018,10,13,07,53,5.40
2018,10,13,07,54,5.40
2018,10,13,07,55,5.30
2018,10,13,07,56,5.30
2018,10,13,07,57,5.30
2018,10,13,07,58,5.30
2018,10,13,07,59,5.30
2018,10,13,08,00,5.30
2018,10,13,08,01,5.30
2018,10,13,08,02,5.30
2018,10,13,08,03,5.30
2018,10,13,08,04,5.30
2018,10,13,08,05,5.30
2018,10,13,08,06,5.40
2018,10,13,08,07,5.40
2018,10,13,08,08,5.40
2018,10,13,08,09,5.40
2018,10,13,08,10,5.40
2018,10,13,08,11,5.50
2018,10,13,08,12,5.50
2018,10,13,08,13,5.50
2018,10,13,08,14,5.60
2018,10,13,08,15,5.60
2018,10,13,08,16,5.70
2018,10,13,08,17,5.70
2018,10,13,08,18,5.80
2018,10,13,08,19,5.80
2018,10,13,08,20,5.80
2018,10,13,08,21,5.80
2018,10,13,08,22,5.80
2018,10,13,08,23,5.80
2018,10,13,08,24,5.80
2018,10,13,08,25,5.80
2018,10,13,08,26,5.90
2018,10,13,08,27,5.90
2018,10,13,08,28,5.90
2018,10,13,08,29,6.00
2018,10,13,08,30,6.00
2018,10,13,08,31,6.10
2018,10,13,08,32,6.20
2018,10,13,08,33,6.30
2018,10,13,08,34,6.30
2018,10,13,08,35,6.50
2018,10,13,08,36,6.60
2018,10,13,08,37,6.70
2018,10,13,08,38,6.80
2018,10,13,08,39,6.80
2018,10,13,08,40,6.90
2018,10,13,08,41,6.90
2018,10,13,08,42,6.90
2018,10,13,08,43,6.90
2018,10,13,08,44,6.90
2018,10,13,08,45,6.90
2018,10,13,08,46,6.90
2018,10,13,08,47,7.00
2018,10,13,08,48,7.00
2018,10,13,08,49,7.00
2018,10,13,08,50,7.00
2018,10,13,08,51,7.00
2018,10,13,08,52,7.10
2018,10,13,08,53,7.20
2018,10,13,08,54,7.20
2018,10,13,08,55,7.20
2018,10,13,08,56,7.30
2018,10,13,08,57,7.30
2018,10,13,08,58,7.40
2018,10,13,08,59,7.40
2018,10,13,09,00,7.50
2018,10,13,09,01,7.50
2018,10,13,09,02,7.60
2018,10,13,09,03,7.70
2018,10,13,09,04,7.70
2018,10,13,09,05,7.80
2018,10,13,09,06,7.80
2018,10,13,09,07,7.80
2018,10,13,09,08,7.90
2018,10,13,09,09,7.90
2018,10,13,09,10,8.00
2018,10,13,09,11,8.00
2018,10,13,09,12,8.10
2018,10,13,09,13,8.20
2018,10,13,09,14,8.20
2018,10,13,09,15,8.30
2018,10,13,09,16,8.30
2018,10,13,09,17,8.30
2018,10,13,09,18,8.40
2018,10,13,09,19,8.40
2018,10,13,09,20,8.50
2018,10,13,09,21,8.50
2018,10,13,09,22,8.60
2018,10,13,09,23,8.60
2018,10,13,09,24,8.70
2018,10,13,09,25,8.70
2018,10,13,09,26,8.80
2018,10,13,09,27,8.90
2018,10,13,09,28,8.90
2018,10,13,09,29,9.00
2018,10,13,09,30,9.00
2018,10,13,09,31,9.10
2018,10,13,09,32,9.20
2018,10,13,09,33,9.20
2018,10,13,09,34,9.30
2018,10,13,09,35,9.40
2018,10,13,09,36,9.40
2018,10,13,09,37,9.50
2018,10,13,09,38,9.60
2018,10,13,09,39,9.60
2018,10,13,09,40,9.70
2018,10,13,09,41,9.80
2018,10,13,09,42,9.90
2018,10,13,09,43,10.00
2018,10,13,09,44,10.10
2018,10,13,09,45,10.10
2018,10,13,09,46,10.20
2018,10,13,09,47,10.20
2018,10,13,09,48,10.30
2018,10,13,09,49,10.30
2018,10,13,09,50,10.40
2018,10,13,09,51,10.40
2018,10,13,09,52,10.50
2018,10,13,09,53,10.60
2018,10,13,09,54,10.60
2018,10,13,09,55,10.60
2018,10,13,09,56,10.70
2018,10,13,09,57,10.80
2018,10,13,09,58,10.90
2018,10,13,09,59,10.90
2018,10,13,10,00,11.00
2018,10,13,10,01,11.10
2018,10,13,10,02,11.20
2018,10,13,10,03,11.30
2018,10,13,10,04,11.40
2018,10,13,10,05,11.50
2018,10,13,10,06,11.60
2018,10,13,10,07,11.60
2018,10,13,10,08,11.70
2018,10,13,10,09,11.70
2018,10,13,10,10,11.90
2018,10,13,10,11,11.90
2018,10,13,10,12,12.00
2018,10,13,10,13,12.00
2018,10,13,10,14,12.10
2018,10,13,10,15,12.20
2018,10,13,10,16,12.20
2018,10,13,10,17,12.30
2018,10,13,10,18,12.30
2018,10,13,10,19,12.40
2018,10,13,10,20,12.50
2018,10,13,10,21,12.60
2018,10,13,10,22,12.70
2018,10,13,10,23,12.80
2018,10,13,10,24,12.90
2018,10,13,10,25,13.00
2018,10,13,10,26,13.10
2018,10,13,10,27,13.10
2018,10,13,10,28,13.20
2018,10,13,10,29,13.30
2018,10,13,10,30,13.40
2018,10,13,10,31,13.50
2018,10,13,10,32,13.60
2018,10,13,10,33,13.70
2018,10,13,10,34,13.80
2018,10,13,10,35,13.80
2018,10,13,10,36,13.90
2018,10,13,10,37,13.90
2018,10,13,10,38,14.00
2018,10,13,10,39,14.00
2018,10,13,10,40,14.00
2018,10,13,10,41,14.00
2018,10,13,10,42,14.00
2018,10,13,10,43,14.10
2018,10,13,10,44,14.10
2018,10,13,10,45,14.20
2018,10,13,10,46,14.30
2018,10,13,10,47,14.40
2018,10,13,10,48,14.40
2018,10,13,10,49,14.50
2018,10,13,10,50,14.60
2018,10,13,10,51,14.60
2018,10,13,10,52,14.70
2018,10,13,10,53,14.70
2018,10,13,10,54,14.80
2018,10,13,10,55,14.80
2018,10,13,10,56,14.90
2018,10,13,10,57,14.90
2018,10,13,10,58,15.00
2018,10,13,10,59,15.00
2018,10,13,11,00,15.10
2018,10,13,11,01,15.10
2018,10,13,11,02,15.10
2018,10,13,11,03,15.10
2018,10,13,11,04,15.10
2018,10,13,11,05,15.10
2018,10,13,11,06,15.00
2018,10,13,11,07,15.00
2018,10,13,11,08,15.00
2018,10,13,11,09,14.90
2018,10,13,11,10,14.90
2018,10,13,11,11,14.90
2018,10,13,11,12,15.00
2018,10,13,11,13,15.10
2018,10,13,11,14,15.20
2018,10,13,11,15,15.20
2018,10,13,11,16,15.30
2018,10,13,11,17,15.40
2018,10,13,11,18,15.60
2018,10,13,11,19,15.70
2018,10,13,11,20,15.70
2018,10,13,11,21,15.80
2018,10,13,11,22,15.80
2018,10,13,11,23,15.80
2018,10,13,11,24,15.90
2018,10,13,11,25,15.90
2018,10,13,11,26,15.90
2018,10,13,11,27,15.90
2018,10,13,11,28,15.90
2018,10,13,11,29,16.00
2018,10,13,11,30,16.10
2018,10,13,11,31,16.10
2018,10,13,11,32,16.10
2018,10,13,11,33,16.10
2018,10,13,11,34,16.10
2018,10,13,11,35,16.10
2018,10,13,11,36,16.10
2018,10,13,11,37,16.00
2018,10,13,11,38,16.00
2018,10,13,11,39,15.90
2018,10,13,11,40,15.90
2018,10,13,11,41,15.90
2018,10,13,11,42,15.90
2018,10,13,11,43,15.90
2018,10,13,11,44,16.00
2018,10,13,11,45,16.10
2018,10,13,11,46,16.10
2018,10,13,11,47,16.00
2018,10,13,11,48,15.90
2018,10,13,11,49,15.90
2018,10,13,11,50,15.90
2018,10,13,11,51,15.90
2018,10,13,11,52,16.00
2018,10,13,11,53,16.00
2018,10,13,11,54,16.00
2018,10,13,11,55,16.00
2018,10,13,11,56,16.00
2018,10,13,11,57,16.00
2018,10,13,11,58,16.00
2018,10,13,11,59,16.10
2018,10,13,12,00,16.10
2018,10,13,12,01,16.10
2018,10,13,12,02,16.10
2018,10,13,12,03,16.10
2018,10,13,12,04,16.20
2018,10,13,12,05,16.20
2018,10,13,12,06,16.20
2018,10,13,12,07,16.30
2018,10,13,12,08,16.30
2018,10,13,12,09,16.30
2018,10,13,12,10,16.30
2018,10,13,12,11,16.20
2018,10,13,12,12,16.20
2018,10,13,12,13,16.10
2018,10,13,12,14,16.10
2018,10,13,12,15,16.10
2018,10,13,12,16,16.10
2018,10,13,12,17,16.20
2018,10,13,12,18,16.20
2018,10,13,12,19,16.20
2018,10,13,12,20,16.20
2018,10,13,12,21,16.20
2018,10,13,12,22,16.20
2018,10,13,12,23,16.30
2018,10,13,12,24,16.30
2018,10,13,12,25,16.40
2018,10,13,12,26,16.40
2018,10,13,12,27,16.50
2018,10,13,12,28,16.50
2018,10,13,12,29,16.50
2018,10,13,12,30,16.40
2018,10,13,12,31,16.40
2018,10,13,12,32,16.30
2018,10,13,12,33,16.30
2018,10,13,12,34,16.30
2018,10,13,12,35,16.30
2018,10,13,12,36,16.30
2018,10,13,12,37,16.40
2018,10,13,12,38,16.40
2018,10,13,12,39,16.50
2018,10,13,12,40,16.50
2018,10,13,12,41,16.50
2018,10,13,12,42,16.60
2018,10,13,12,43,16.60
2018,10,13,12,44,16.70
2018,10,13,12,45,16.70
2018,10,13,12,46,16.70
2018,10,13,12,47,16.80
2018,10,13,12,48,16.80
2018,10,13,12,49,16.80
2018,10,13,12,50,16.80
2018,10,13,12,51,16.90
2018,10,13,12,52,17.00
2018,10,13,12,53,17.00
2018,10,13,12,54,17.10
2018,10,13,12,55,17.20
2018,10,13,12,56,17.20
2018,10,13,12,57,17.30
2018,10,13,12,58,17.30
2018,10,13,12,59,17.30
2018,10,13,13,00,17.30
2018,10,13,13,01,17.30
2018,10,13,13,02,17.30
2018,10,13,13,03,17.30
2018,10,13,13,04,17.30
2018,10,13,13,05,17.40
2018,10,13,13,06,17.40
2018,10,13,13,07,17.30
2018,10,13,13,08,17.30
2018,10,13,13,09,17.30
2018,10,13,13,10,17.30
2018,10,13,13,11,17.40
2018,10,13,13,12,17.50
2018,10,13,13,13,17.60
2018,10,13,13,14,17.60
2018,10,13,13,15,17.60
2018,10,13,13,16,17.50
2018,10,13,13,17,17.50
2018,10,13,13,18,17.50
2018,10,13,13,19,17.50
2018,10,13,13,20,17.50
2018,10,13,13,21,17.50
2018,10,13,13,22,17.40
2018,10,13,13,23,17.40
2018,10,13,13,24,17.40
2018,10,13,13,25,17.30
2018,10,13,13,26,17.30
2018,10,13,13,27,17.20
2018,10,13,13,28,17.20
2018,10,13,13,29,17.20
2018,10,13,13,30,17.20
2018,10,13,13,31,17.30
2018,10,13,13,32,17.30
2018,10,13,13,33,17.30
2018,10,13,13,34,17.40
2018,10,13,13,35,17.30
2018,10,13,13,36,17.40
2018,10,13,13,37,17.40
2018,10,13,13,38,17.40
2018,10,13,13,39,17.40
2018,10,13,13,40,17.40
2018,10,13,13,41,17.40
2018,10,13,13,42,17.40
2018,10,13,13,43,17.30
2018,10,13,13,44,17.30
2018,10,13,13,45,17.40
2018,10,13,13,46,17.50
2018,10,13,13,47,17.60
2018,10,13,13,48,17.70
2018,10,13,13,49,17.80
2018,10,13,13,50,17.90
2018,10,13,13,51,17.90
2018,10,13,13,52,17.90
2018,10,13,13,53,17.90
2018,10,13,13,54,17.90
2018,10,13,13,55,17.90
2018,10,13,13,56,17.80
2018,10,13,13,57,17.70
2018,10,13,13,58,17.70
2018,10,13,13,59,17.70
2018,10,13,14,00,17.70
2018,10,13,14,01,17.70
2018,10,13,14,02,17.70
2018,10,13,14,03,17.70
2018,10,13,14,04,17.70
2018,10,13,14,05,17.60
2018,10,13,14,06,17.60
2018,10,13,14,07,17.70
2018,10,13,14,08,17.70
2018,10,13,14,09,17.70
2018,10,13,14,10,17.70
2018,10,13,14,11,17.80
2018,10,13,14,12,17.80
2018,10,13,14,13,17.80
2018,10,13,14,14,17.70
2018,10,13,14,15,17.70
2018,10,13,14,16,17.70
2018,10,13,14,17,17.70
2018,10,13,14,18,17.70
2018,10,13,14,19,17.70
2018,10,13,14,20,17.70
2018,10,13,14,21,17.70
2018,10,13,14,22,17.70
2018,10,13,14,23,17.80
2018,10,13,14,24,17.90
2018,10,13,14,25,18.00
2018,10,13,14,26,18.10
2018,10,13,14,27,18.10
2018,10,13,14,28,18.10
2018,10,13,14,29,18.10
2018,10,13,14,30,18.10
2018,10,13,14,31,18.10
2018,10,13,14,32,18.10
2018,10,13,14,33,18.10
2018,10,13,14,34,18.10
2018,10,13,14,35,18.10
2018,10,13,14,36,18.20
2018,10,13,14,37,18.20
2018,10,13,14,38,18.30
2018,10,13,14,39,18.40
2018,10,13,14,40,18.40
2018,10,13,14,41,18.50
2018,10,13,14,42,18.50
2018,10,13,14,43,18.60
2018,10,13,14,44,18.70
2018,10,13,14,45,18.70
2018,10,13,14,46,18.70
2018,10,13,14,47,18.70
2018,10,13,14,48,18.60
2018,10,13,14,49,18.50
2018,10,13,14,50,18.40
2018,10,13,14,51,18.40
2018,10,13,14,52,18.30
2018,10,13,14,53,18.30
2018,10,13,14,54,18.30
2018,10,13,14,55,18.30
2018,10,13,14,56,18.30
2018,10,13,14,57,18.30
2018,10,13,14,58,18.20
2018,10,13,14,59,18.20
2018,10,13,15,00,18.20
2018,10,13,15,01,18.20
2018,10,13,15,02,18.20
2018,10,13,15,03,18.20
2018,10,13,15,04,18.20
2018,10,13,15,05,18.10
2018,10,13,15,06,18.10
2018,10,13,15,07,18.10
2018,10,13,15,08,18.10
2018,10,13,15,09,18.10
2018,10,13,15,10,18.10
2018,10,13,15,11,18.10
2018,10,13,15,12,18.10
2018,10,13,15,13,18.10
2018,10,13,15,14,18.20
2018,10,13,15,15,18.20
2018,10,13,15,16,18.30
2018,10,13,15,17,18.30
2018,10,13,15,18,18.30
2018,10,13,15,19,18.30
2018,10,13,15,20,18.30
2018,10,13,15,21,18.30
2018,10,13,15,22,18.30
2018,10,13,15,23,18.30
2018,10,13,15,24,18.30
2018,10,13,15,25,18.30
2018,10,13,15,26,18.30
2018,10,13,15,27,18.40
2018,10,13,15,28,18.50
2018,10,13,15,29,18.60
2018,10,13,15,30,18.60
2018,10,13,15,31,18.60
2018,10,13,15,32,18.60
2018,10,13,15,33,18.70
2018,10,13,15,34,18.70
2018,10,13,15,35,18.60
2018,10,13,15,36,18.60
2018,10,13,15,37,18.60
2018,10,13,15,38,18.50
2018,10,13,15,39,18.40
2018,10,13,15,40,18.40
2018,10,13,15,41,18.40
2018,10,13,15,42,18.40
2018,10,13,15,43,18.40
2018,10,13,15,44,18.40
2018,10,13,15,45,18.40
2018,10,13,15,46,18.40
2018,10,13,15,47,18.30
2018,10,13,15,48,18.30
2018,10,13,15,49,18.30
2018,10,13,15,50,18.30
2018,10,13,15,51,18.40
2018,10,13,15,52,18.40
2018,10,13,15,53,18.40
2018,10,13,15,54,18.40
2018,10,13,15,55,18.50
2018,10,13,15,56,18.50
2018,10,13,15,57,18.60
2018,10,13,15,58,18.60
2018,10,13,15,59,18.60
2018,10,13,16,00,18.60
2018,10,13,16,01,18.50
2018,10,13,16,02,18.50
2018,10,13,16,03,18.60
2018,10,13,16,04,18.60
2018,10,13,16,05,18.50
2018,10,13,16,06,18.50
2018,10,13,16,07,18.40
2018,10,13,16,08,18.40
2018,10,13,16,09,18.30
2018,10,13,16,10,18.30
2018,10,13,16,11,18.30
2018,10,13,16,12,18.30
2018,10,13,16,13,18.20
2018,10,13,16,14,18.10
2018,10,13,16,15,18.00
2018,10,13,16,16,17.90
2018,10,13,16,17,17.90
2018,10,13,16,18,17.90
2018,10,13,16,19,17.90
2018,10,13,16,20,17.80
2018,10,13,16,21,17.70
2018,10,13,16,22,17.50
2018,10,13,16,23,17.40
2018,10,13,16,24,17.40
2018,10,13,16,25,17.30
2018,10,13,16,26,17.30
2018,10,13,16,27,17.30
2018,10,13,16,28,17.30
2018,10,13,16,29,17.30
2018,10,13,16,30,17.30
2018,10,13,16,31,17.30
2018,10,13,16,32,17.20
2018,10,13,16,33,17.20
2018,10,13,16,34,17.10
2018,10,13,16,35,17.00
2018,10,13,16,36,17.00
2018,10,13,16,37,16.90
2018,10,13,16,38,16.90
2018,10,13,16,39,16.90
2018,10,13,16,40,16.90
2018,10,13,16,41,16.90
2018,10,13,16,42,16.80
2018,10,13,16,43,16.80
2018,10,13,16,44,16.80
2018,10,13,16,45,16.90
2018,10,13,16,46,16.90
2018,10,13,16,47,16.90
2018,10,13,16,48,16.90
2018,10,13,16,49,16.90
2018,10,13,16,50,17.00
2018,10,13,16,51,17.00
2018,10,13,16,52,17.10
2018,10,13,16,53,17.10
2018,10,13,16,54,17.10
2018,10,13,16,55,17.10
2018,10,13,16,56,17.20
2018,10,13,16,57,17.20
2018,10,13,16,58,17.20
2018,10,13,16,59,17.20
2018,10,13,17,00,17.30
2018,10,13,17,01,17.30
2018,10,13,17,02,17.30
2018,10,13,17,03,17.30
2018,10,13,17,04,17.30
2018,10,13,17,05,17.30
2018,10,13,17,06,17.30
2018,10,13,17,07,17.20
2018,10,13,17,08,17.10
2018,10,13,17,09,17.10
2018,10,13,17,10,17.10
2018,10,13,17,11,17.10
2018,10,13,17,12,17.10
2018,10,13,17,13,17.10
2018,10,13,17,14,17.00
2018,10,13,17,15,17.00
2018,10,13,17,16,16.90
2018,10,13,17,17,16.90
2018,10,13,17,18,16.90
2018,10,13,17,19,16.80
2018,10,13,17,20,16.80
2018,10,13,17,21,16.80
2018,10,13,17,22,16.80
2018,10,13,17,23,16.80
2018,10,13,17,24,16.80
2018,10,13,17,25,16.70
2018,10,13,17,26,16.70
2018,10,13,17,27,16.70
2018,10,13,17,28,16.60
2018,10,13,17,29,16.60
2018,10,13,17,30,16.60
2018,10,13,17,31,16.60
2018,10,13,17,32,16.60
2018,10,13,17,33,16.50
2018,10,13,17,34,16.60
2018,10,13,17,35,16.60
2018,10,13,17,36,16.60
2018,10,13,17,37,16.60
2018,10,13,17,38,16.60
2018,10,13,17,39,16.60
2018,10,13,17,40,16.60
2018,10,13,17,41,16.60
2018,10,13,17,42,16.60
2018,10,13,17,43,16.60
2018,10,13,17,44,16.50